TimeEST,TemperatureF,Dew PointF,Humidity,Sea Level PressureIn,VisibilityMPH,Wind Direction,Wind SpeedMPH,Gust SpeedMPH,PrecipitationIn,Events,Conditions,WindDirDegrees,DateUTC
12:53 AM,55.0,52.0,89,29.98,10.0,NNW,3.5,-,N/A,,Clear,330,2013-11-03 04:53:00
1:53 AM,55.9,51.1,84,29.98,10.0,NW,5.8,-,N/A,,Clear,310,2013-11-03 05:53:00
1:53 AM,59.0,50.0,72,29.99,10.0,NW,9.2,-,N/A,,Clear,320,2013-11-03 06:53:00
2:53 AM,57.9,48.9,72,30.01,10.0,North,6.9,-,N/A,,Clear,350,2013-11-03 07:53:00
3:53 AM,57.0,46.9,69,30.02,10.0,NNW,8.1,-,N/A,,Clear,340,2013-11-03 08:53:00
4:53 AM,55.9,48.0,75,30.03,10.0,North,5.8,-,N/A,,Clear,350,2013-11-03 09:53:00
5:53 AM,55.0,46.9,74,30.05,10.0,NNW,8.1,-,N/A,,Clear,330,2013-11-03 10:53:00
6:53 AM,54.0,46.9,77,30.07,10.0,NNW,6.9,-,N/A,,Clear,340,2013-11-03 11:53:00
7:53 AM,55.9,46.9,72,30.10,10.0,North,8.1,-,N/A,,Clear,350,2013-11-03 12:53:00
8:53 AM,61.0,50.0,67,30.13,10.0,NNW,6.9,-,N/A,,Clear,340,2013-11-03 13:53:00
9:53 AM,66.0,53.1,63,30.14,10.0,North,9.2,-,N/A,,Clear,10,2013-11-03 14:53:00
10:53 AM,68.0,54.0,61,30.14,10.0,North,11.5,20.7,N/A,,Clear,360,2013-11-03 15:53:00
11:53 AM,70.0,48.9,47,30.14,10.0,NNE,13.8,20.7,N/A,,Clear,30,2013-11-03 16:53:00
12:53 PM,71.1,44.1,38,30.12,10.0,NE,11.5,20.7,N/A,,Partly Cloudy,50,2013-11-03 17:53:00
1:53 PM,70.0,44.1,39,30.12,10.0,NNE,15.0,23.0,N/A,,Partly Cloudy,20,2013-11-03 18:53:00
2:53 PM,70.0,42.1,36,30.12,10.0,NNE,13.8,21.9,N/A,,Partly Cloudy,20,2013-11-03 19:53:00
3:53 PM,69.1,42.1,38,30.12,10.0,NE,13.8,19.6,N/A,,Clear,40,2013-11-03 20:53:00
4:53 PM,68.0,44.1,42,30.14,10.0,NE,8.1,19.6,N/A,,Partly Cloudy,40,2013-11-03 21:53:00
5:53 PM,64.9,46.0,50,30.16,10.0,NNE,8.1,-,N/A,,Partly Cloudy,30,2013-11-03 22:53:00
6:53 PM,64.9,46.0,50,30.18,10.0,NE,6.9,-,N/A,,Scattered Clouds,40,2013-11-03 23:53:00
7:53 PM,64.9,46.0,50,30.19,10.0,NE,11.5,17.3,N/A,,Partly Cloudy,50,2013-11-04 00:53:00
8:53 PM,64.9,46.0,50,30.20,10.0,NE,11.5,17.3,N/A,,Clear,40,2013-11-04 01:53:00
9:53 PM,64.9,46.0,50,30.21,10.0,NE,10.4,-,N/A,,Clear,40,2013-11-04 02:53:00
10:53 PM,66.0,46.0,48,30.21,10.0,NE,10.4,17.3,N/A,,Clear,50,2013-11-04 03:53:00